Location: Lancaster
(34.6980°N, 118.1360°W)
Time: 03:41:24
(UTC-08:00)

N. Korean satellite - Pass Details

Date: 14 November 2017
Orbit: 460 x 514 km, 97.2° (Epoch: 20 November)

Event Time Altitude Azimuth Distance (km) Brightness Sun altitude
Rises 17:19:52 0° 142° (SE) 2,472 9.9 -7.0°
Reaches altitude 10° 17:22:07 10° 129° (SE) 1,605 8.9 -7.4°
Maximum altitude 17:24:58 25° 73° (ENE) 985 7.5 -8.0°
Drops below altitude 10° 17:27:51 10° 17° (NNE) 1,629 8.9 -8.6°
Sets 17:30:10 0° 3° (N) 2,518 10.0 -9.0°
